Regional Weather Roundup
Issued by NWS

Home | Current Version | Previous Version | Graphics & Text | Print | Product List | Glossary On
Versions: 1 2 3 4 5 6 7 8 9 10 11 12 13 14 15 16 17 18 19 20 21 22 23 24 25 26 27 28 29 30 31 32 33 34 35 36 37 38 39 40 41 42 43 44 45 46 47 48 49 50
000
ASUS43 KLMK 270210
RWRKY
KENTUCKY REGIONAL WEATHER ROUNDUP
NATIONAL WEATHER SERVICE LOUISVILLE KY
1000 PM EDT SUN APR 26 2015

NOTE "FAIR" INDICATES FEW OR NO CLOUDS BELOW 12,000 FEET
WITH NO SIGNIFICANT WEATHER AND/OR OBSTRUCTIONS TO VISIBILITY.

KYZ001>023-026-027-061>063-070>075-270300-
WESTERN AND SOUTH CENTRAL KENTUCKY

CITY           SKY/WX    TMP DP  RH WIND       PRES   REMARKS
PADUCAH        CLEAR     53  37  54 N7        29.91R
HENDERSON      CLEAR     55  36  47 N8        29.92R
OWENSBORO      CLEAR     56  38  50 N8        29.92R
HOPKINSVILLE   CLEAR     55  41  60 N6        29.88R
BOWLING GREEN  CLEAR     55  37  50 CALM      29.88R
GLASGOW        FAIR      50  38  63 N5        29.88R
$$

KYZ024-025-028>034-038-045-046-053-270300-
NORTH CENTRAL KENTUCKY

CITY           SKY/WX    TMP DP  RH WIND       PRES   REMARKS
LOUISVILLE/SDF CLEAR     55  35  47 N12       29.91R
LOUISVILLE/LOU CLEAR     54  36  50 N6        29.91R
FORT KNOX      CLEAR     52  36  55 N9        29.89R
$$

KYZ035>037-039>044-047>052-055>060-089>105-270300-
NORTHEAST KENTUCKY

CITY           SKY/WX    TMP DP  RH WIND       PRES   REMARKS
LEXINGTON      CLEAR     50  36  58 N8        29.88R
COVINGTON      MOCLDY    50  35  56 N7        29.90R
FRANKFORT      CLEAR     53  34  48 N8        29.88R
$$

KYZ054-064>069-076>088-106>120-270300-
SOUTHEAST KENTUCKY

CITY           SKY/WX    TMP DP  RH WIND       PRES   REMARKS
JACKSON        FAIR      53  33  46 VRB6      29.84R
LONDON         CLEAR     53  34  48 NW5       29.85R
SOMERSET       CLEAR     48  39  71 CALM      29.88R
MIDDLESBORO    CLEAR     48  48  97 CALM      29.85R
MONTICELLO     MOCLDY    48  44  86 CALM      29.89R
$$




USA.gov is the U.S. government's official web portal to all federal, state and local government web resources and services.